User: anonymous   Login
Location: Theodore Roosevelt National Park
(46.9990°N, 103.4631°W)
Time: 20:57:50
(UTC-06:00)
Language:

Cosmos 2219 Rocket - Orbit

View from above orbital plane
View from above orbital plane
View from above satellite
View from above satellite

Ground track
Ground track

The orbit data is extracted from the following two-line orbital elements,

1 22220U 92076B   17293.82260365  .00000131  00000-0  89734-4 0  9996
2 22220  70.9987 154.7939 0010690  79.7205 353.7832 14.16420225288561
Epoch (UTC): 20 October 2017 19:44:32
Eccentricity: 0.0010690
inclination: 70.9987°
perigee height: 830 km
apogee height: 845 km
right ascension of ascending node: 154.7939°
argument of perigee: 79.7205°
revolutions per day: 14.16420225
mean anomaly at epoch: 353.7832°
orbit number at epoch: 28856

The dashed part of the orbit path shows where the satellite is in the earth's shadow,  

DLR